Location: Amedorf
(52.5945°N, 9.5627°E)
Time: 19:26:58
(UTC+00:00)

Daily predictions for brighter satellites

Satellite Brightness Start Highest point End
(mag) Time Altitude Azimuth Time Altitude Azimuth Time Altitude Azimuth
Meteor 1-22 Rocket 4.3 20:28:22 10° NNW 20:33:44 77° W 20:39:14 10° S
Cosmos 2016 Rocket 4.2 20:28:14 10° N 20:34:36 71° ENE 20:40:57 10° SSE
Cosmos 1455 3.6 20:34:28 10° NW 20:36:41 22° W 20:38:54 10° SSW
GP-B 4.0 20:32:43 10° NNE 20:36:41 33° E 20:40:39 10° SSE
Cosmos 1933 Rocket 3.6 20:34:12 10° N 20:38:36 73° ENE 20:42:57 10° SSE
NOSS 3-4 (A) 3.7 20:33:56 10° WSW 20:39:22 71° NW 20:45:32 10° NE
NOSS 3-4 (C) 3.7 20:34:02 10° WSW 20:39:29 71° NW 20:45:38 10° NE
Cosmos 1437 Rocket 2.6 20:36:11 10° S 20:39:41 62° E 20:43:16 10° NNE
Lacrosse 4 Rocket 2.8 20:36:56 10° NW 20:40:41 31° WSW 20:44:25 10° S
Cosmos 1733 Rocket 4.4 20:42:56 10° N 20:46:43 27° ENE 20:50:26 10° SE
ATLAS 3B R/B 4.4 20:40:06 10° WNW 20:47:22 38° N 20:54:37 10° ENE
Cosmos 1515 Rocket 3.6 20:43:54 10° S 20:48:19 88° ESE 20:52:48 10° NNE
Cosmos 921 Rocket 3.9 20:48:35 10° SW 20:52:47 53° WNW 20:57:06 10° NNE
PSLV R/B 3.4 20:49:32 10° SSE 20:52:49 81° WSW 20:56:08 10° NNW
Cosmos 1869 Rocket 3.6 20:48:43 10° N 20:53:07 68° ENE 20:57:26 10° SSE
SL-4 R/B 2.9 20:49:45 10° SSW 20:53:16 27° SSE 20:56:44 10° E
SL-16 R/B 2.6 20:47:56 10° NW 20:53:30 58° WSW 20:59:01 10° SSE
Cosmos 540 Rocket 4.5 20:51:51 10° NNW 20:56:37 37° NE 21:01:19 10° ESE
Cosmos 2263 Rocket 2.2 20:52:11 10° SSW 20:57:47 65° ESE 21:03:27 10° NE
Cosmos 2227 Rocket 2.5 20:53:04 10° SW 20:58:43 74° WNW 21:04:25 10° NNE
Ariane Rocket 3.2 20:54:36 10° S 20:59:40 71° WSW 21:04:46 10° NNW
ATLAS CENTAUR R/B 3.7 21:01:16 10° W 21:02:46 12° WSW 21:04:14 10° SW
Meteor 1-16 Rocket 4.4 21:02:08 10° NNW 21:07:58 86° ENE 21:13:54 10° SSE
NOSS 3-1 (A) 4.3 21:01:30 10° NW 21:08:05 60° NE 21:16:15 10° ESE
Cosmos 2344 4.0 21:02:22 10° NW 21:10:10 84° NE 21:20:37 10° SE
Cosmos 2233 Rocket 4.1 21:04:23 10° N 21:10:46 89° E 21:17:06 10° S
Okean O Rocket 4.1 21:08:43 10° SW 21:11:19 16° W 21:13:56 10° NW
Cosmos 1943 3.3 21:05:58 10° NNW 21:11:43 81° ENE 21:17:07 12° SE
Cosmos 1818 4.3 21:07:33 10° WSW 21:12:57 60° NW 21:18:22 10° NE
Cosmos 2292 Rocket 3.9 21:12:36 13° SE 21:14:34 25° E 21:17:05 10° NNE
Meteor 1-23 Rocket 4.3 21:10:07 10° SSW 21:15:42 84° WNW 21:21:23 10° NNE
RESURS DK-1 3.0 21:11:47 10° SW 21:15:45 59° NW 21:19:43 10° NNE
ATLAS 2AS CENTAUR R/B 4.4 21:12:45 10° SE 21:16:02 14° ESE 21:19:17 10° ENE
USA 305 2.5 21:14:56 10° W 21:18:46 75° NNW 21:21:52 10° ENE
Okean 2 3.6 21:16:11 11° SSE 21:19:42 47° E 21:23:28 10° NNE
Cosmos 1892 3.7 21:18:28 13° SE 21:20:15 21° E 21:22:38 10° NE
Cosmos 1269 Rocket 4.0 21:15:08 10° SSW 21:20:23 77° ESE 21:25:42 10° NNE
USA 290 2.1 21:17:48 10° SSW 21:20:59 81° ESE 21:24:12 10° NNE
DELTA 2 DEB (DPAF) 4.4 21:18:15 10° NNE 21:21:58 41° E 21:25:12 13° SSE
COBE Rocket 4.1 21:17:09 10° NNE 21:22:09 59° E 21:26:59 10° S
Cosmos 1953 2.4 21:18:32 10° NNW 21:22:16 69° W 21:25:49 11° S
Cosmos 1862 Rocket 4.5 21:19:28 13° SSE 21:22:58 34° E 21:26:56 10° NNE
Meteor 1-21 4.3 21:19:06 10° SSW 21:24:50 88° WNW 21:30:40 10° NNE
Meteor 2-16 Rocket 4.5 21:20:06 10° S 21:26:10 75° E 21:32:16 10° NNE
Cosmos 2219 3.3 21:22:37 10° SSW 21:28:22 90° ESE 21:34:10 10° NNE
Cosmos 1603 3.9 21:27:19 10° NNW 21:32:56 67° NE 21:38:04 12° SE
CZ-4C R/B 4.0 21:30:55 10° NE 21:33:45 27° E 21:35:40 16° SSE
USA 307 3.6 21:31:29 12° S 21:33:57 22° SE 21:36:59 10° E
Cosmos 2082 3.7 21:29:49 10° SSW 21:35:32 81° ESE 21:41:18 10° NNE
IRIDIUM 103 4.5 21:33:11 13° S 21:37:52 64° E 21:43:03 10° N
USA 59 Rocket 0.4 21:34:52 10° NW 21:38:05 47° NE 21:42:10 10° ESE
Cosmos 1763 Rocket 3.4 21:39:06 10° NNW 21:44:17 89° WSW 21:48:27 16° SSE
CZ-2C R/B 4.5 21:42:18 10° NNE 21:46:33 37° E 21:49:46 16° SSE
Okean 3 3.4 21:45:02 11° S 21:48:55 87° W 21:53:02 10° N
ARIANE 5 R/B 3.0 21:46:14 15° SE 21:49:47 56° ENE 21:54:12 10° N
Geosat 4.0 21:45:32 10° NE 21:50:33 67° ESE 21:55:32 10° SSW
MetOp-A 3.9 21:51:30 16° SSE 21:55:13 66° ENE 21:59:33 10° N
IRIDIUM 106 4.3 21:51:28 13° S 21:56:09 88° E 22:01:25 10° N
Cosmos 2227 4.4 21:51:46 11° S 21:57:05 54° ESE 22:02:33 10° NE
OPS 6432 4.2 22:00:58 10° NW 22:04:22 87° SW 22:06:31 19° SE
Cosmos 1844 Rocket 3.0 22:01:37 14° S 22:06:20 50° ESE 22:11:49 10° NE
Cosmos 1140 Rocket 3.8 22:02:29 10° SW 22:07:36 66° WNW 22:12:42 10° NNE
NOSS 3-1 (C) 4.3 22:01:46 10° NW 22:08:38 55° SW 22:15:33 16° SSE
Cosmos 1072 Rocket 4.5 22:07:21 10° N 22:13:32 89° E 22:18:23 17° S
Cosmos 1271 Rocket 3.2 22:13:13 21° SSE 22:15:12 40° E 22:18:37 10° NNE
Cosmos 1707 Rocket 3.6 22:12:25 14° SSW 22:16:05 76° WNW 22:20:24 10° N
Cosmos 1844 3.8 22:16:10 15° S 22:20:40 56° ESE 22:26:07 10° NE
Cosmos 2228 Rocket 3.2 22:18:25 15° SSW 22:22:08 75° WNW 22:26:35 10° N
Cosmos 1733 Rocket 4.0 22:20:25 10° NNW 22:24:31 39° W 22:27:50 14° SSW
Cosmos 1703 3.8 22:21:35 13° SSW 22:24:34 45° WNW 22:27:57 10° N
Aureole 3 Rocket 3.0 22:25:21 10° NNW 22:28:31 52° W 22:30:58 19° SSW
SL-4 R/B 1.9 22:26:48 10° WSW 22:30:54 65° SSE 22:34:51 10° E
NOSS 2-1 (D) 3.2 22:27:42 10° NW 22:31:06 73° SW 22:34:09 18° SE
Cosmos 540 Rocket 4.2 22:33:22 10° NW 22:38:12 42° WSW 22:41:36 18° SSW
Okean 1-7 3.1 22:35:17 17° SSW 22:38:25 68° WNW 22:42:33 10° N
Cosmos 407 Rocket 3.8 22:34:23 10° SW 22:39:28 63° WNW 22:44:34 10° NNE
ATLAS 3B R/B 3.4 22:31:39 10° NW 22:39:33 65° NE 22:47:13 10° ESE
Cosmos 2263 Rocket 4.0 22:37:02 10° WSW 22:42:08 33° NW 22:47:16 10° NNE
ALOS 2 2.6 22:39:35 21° SSE 22:42:28 85° WSW 22:46:55 10° NNW
Cosmos 1833 Rocket 3.3 22:41:11 10° NNW 22:46:42 53° NE 22:52:11 10° SE
USA 305 2.5 22:44:04 10° WNW 22:47:30 59° N 22:50:03 10° E
Meteor 1-24 Rocket 4.1 22:43:35 19° S 22:47:51 60° E 22:53:36 10° NNE
Cosmos 1908 Rocket 3.7 22:43:46 10° NNW 22:48:07 67° W 22:50:55 21° S
ASTEX 1 4.2 22:44:49 10° N 22:49:35 47° WNW 22:53:49 13° SSW
Cosmos 1892 4.1 22:50:32 10° SW 22:52:58 23° WNW 22:55:28 10° NNW
Tsikada Rocket 4.2 22:49:22 19° SSE 22:53:52 61° E 23:00:05 10° NNE
Cosmos 1954 Rocket 3.9 22:52:58 17° SSW 22:56:58 80° ESE 23:02:11 10° NNE
NOSS 3-1 (A) 4.3 22:52:15 10° NW 22:59:08 54° SW 23:05:38 17° SSE
Cosmos 2251 Rocket 3.9 22:54:48 11° SW 23:00:00 67° WNW 23:05:22 10° NNE
NOSS 2-1 (C) 3.7 22:56:52 10° WNW 23:00:12 44° SW 23:02:29 23° S
Cosmos 841 Rocket 3.5 22:57:27 10° NNW 23:02:43 71° WSW 23:06:15 21° SSE
USA 307 2.4 22:59:53 10° WSW 23:03:31 73° SSE 23:07:31 10° ENE
Landsat 5 3.7 22:59:20 10° N 23:03:35 66° WNW 23:06:35 18° SSW
Cosmos 1190 Rocket 4.1 22:59:09 14° SSW 23:03:47 77° WNW 23:09:05 10° NNE
ATLAS 2AS CENTAUR R/B 2.9 22:59:49 15° SSW 23:05:34 56° SE 23:12:19 10° NE
SeaSat 1 2.5 23:01:31 15° SE 23:05:39 77° NE 23:10:35 10° NNW
H-2A R/B 4.4 23:03:13 10° ESE 23:05:53 20° ENE 23:08:34 10° NNE
SJ 16-02 1.5 23:04:19 23° S 23:06:51 59° ESE 23:11:08 10° NNE
Cosmos 2034 Rocket 4.2 23:00:49 10° NNW 23:06:58 63° W 23:11:34 19° S
NOSS 2-1 (E) 3.8 23:04:48 10° WNW 23:08:11 43° SW 23:10:27 23° S
Meteor 2-5 Rocket 3.9 23:10:07 19° S 23:14:29 85° ESE 23:20:28 10° NNE
Spot 1 4.4 23:12:37 10° NNE 23:17:38 87° ESE 23:21:11 20° SSW
CZ-2C R/B 3.8 23:16:07 10° SE 23:20:56 38° ENE 23:25:51 10° N
Cosmos 1300 Rocket 3.9 23:17:42 10° NNW 23:22:02 57° W 23:24:42 22° SSW
Cosmos 2082 Rocket 3.8 23:18:01 10° NNW 23:23:09 33° NE 23:28:15 10° ESE
Cosmos 1943 Rocket 4.1 23:20:16 10° SE 23:23:26 16° E 23:26:37 10° ENE
ARIANE 5 R/B 4.4 23:23:38 13° SW 23:26:27 21° W 23:29:54 10° NW
USA 59 Rocket 1.0 23:23:50 10° WNW 23:26:59 27° SW 23:28:34 22° SSW
Cosmos 304 Rocket 4.2 23:26:36 22° S 23:29:23 47° ESE 23:33:58 10° NE
Cosmos 2278 Rocket 3.9 23:27:24 12° SE 23:30:51 20° E 23:34:54 10° NE
Cosmos 1634 Rocket 4.1 23:30:04 10° NNW 23:36:18 68° W 23:40:48 19° S
Cosmos 968 Rocket 3.7 23:33:29 21° S 23:36:52 60° ESE 23:42:03 10° NNE
Cosmos 2151 Rocket 4.3 23:35:40 10° N 23:39:59 49° ENE 23:43:30 15° SE
PSLV R/B 4.1 23:37:24 10° N 23:41:38 55° WNW 23:44:49 17° SW
Okean 2 Rocket 4.0 23:37:44 10° N 23:42:03 43° ENE 23:45:45 13° SE
Cosmos 1606 2.4 23:39:31 10° NNW 23:42:30 52° W 23:43:44 29° SSW
Okean 1 Rocket 4.4 23:39:29 10° N 23:43:38 36° ENE 23:47:42 10° SE
Cosmos 1378 Rocket 4.2 23:44:46 20° SSE 23:47:34 47° E 23:51:46 10° NNE
SL-24 R/B - RUBIN 2 3.8 23:44:01 10° NW 23:48:59 63° SW 23:52:24 17° SSE
Cosmos 1844 Rocket 3.9 23:45:05 10° WSW 23:50:24 39° NW 23:55:44 10° NNE
Cosmos 1869 3.5 23:52:36 10° N 23:56:17 58° ENE 23:58:50 18° SSE
